Glendive, MT

2:11 PM MDT on April 27, 2017 (GMT -0600)
Dawson Community

Weather History for KGDV - July, 2013

Change the Weather History Date:

Thursday, July 11, 2013

  Actual Average Record
Temperature  
Mean Temperature 80 °F -  
Max Temperature 100 °F 83 °F 100 °F (2013)
Min Temperature 60 °F 56 °F 48 °F (1999)
Cooling Degree Days 15    
Growing Degree Days 30 (Base 50)    
Moisture  
Dew Point 62 °F    
Average Humidity 59    
Maximum Humidity 88    
Minimum Humidity 23    
Precipitation  
Precipitation 0.00 in - - ()
Sea Level Pressure  
Sea Level Pressure 29.82 in    
Wind  
Wind Speed 8 mph (SSE)    
Max Wind Speed 26 mph    
Max Gust Speed 41 mph    
Visibility 10 miles    
Events Thunderstorm    
Averages and records for this station are not official NWS values.
T = Trace of Precipitation, MM = Missing Value Source: NWS Daily Summary

Daily Weather History Graph

Daily Weather History Graph

Search for Another Location

Airport or City:

Trip Planner

Search our weather history database for the weather conditions in past years. The results will help you decide how hot, cold, wet, or windy it might be!

Date:

Astronomy

Jul. 11, 2013 Rise Set
Actual Time 5:15 AM MDT 8:53 PM MDT
Civil Twilight 4:36 AM MDT 9:32 PM MDT
Nautical Twilight 3:44 AM MDT 10:24 PM MDT
Astronomical Twilight 2:32 AM MDT 11:34 PM MDT
Moon 8:53 AM MDT (7/11) 10:16 PM MDT (7/11)
Length of Visible Light 16h 55m
Length of Day
15h 38m
Waxing Crescent, 11% of the Moon is Illuminated
Jul 11
Waxing Crescent
Jul 15
First Quarter
Jul 22
Full
Jul 29
Last Quarter
Aug 6
New

Hourly Weather History & Observations

Time (MDT) Temp. Heat Index Dew Point Humidity Pressure Visibility Wind Dir Wind Speed Gust Speed Precip Events Conditions
12:15 AM 69.8 °F - 62.6 °F 78% 29.92 in 10.0 mi South 10.4 mph - N/A   Clear
12:35 AM 71.6 °F - 62.6 °F 73% 29.91 in 10.0 mi SSE 8.1 mph - N/A   Clear
12:55 AM 69.8 °F - 62.6 °F 78% 29.91 in 10.0 mi South 6.9 mph - N/A   Clear
1:15 AM 69.8 °F - 62.6 °F 78% 29.90 in 10.0 mi SE 5.8 mph - N/A   Clear
1:35 AM 68.0 °F - 62.6 °F 83% 29.89 in 10.0 mi SE 5.8 mph - N/A   Clear
1:55 AM 66.2 °F - 60.8 °F 83% 29.88 in 10.0 mi Calm Calm - N/A   Clear
2:15 AM 66.2 °F - 60.8 °F 83% 29.87 in 10.0 mi SSE 4.6 mph - N/A   Clear
2:35 AM 64.4 °F - 60.8 °F 88% 29.88 in 10.0 mi South 4.6 mph - N/A   Clear
2:55 AM 62.6 °F - 57.2 °F 82% 29.87 in 10.0 mi SSW 4.6 mph - N/A   Clear
3:15 AM 62.6 °F - 59.0 °F 88% 29.87 in 10.0 mi SSW 5.8 mph - N/A   Clear
3:55 AM 66.2 °F - 60.8 °F 83% 29.86 in 10.0 mi SSE 4.6 mph - N/A   Clear
4:15 AM 64.4 °F - 59.0 °F 83% 29.86 in 10.0 mi SSE 4.6 mph - N/A   Clear
4:35 AM 64.4 °F - 60.8 °F 88% 29.85 in 10.0 mi South 4.6 mph - N/A   Clear
4:55 AM 62.6 °F - 59.0 °F 88% 29.85 in 10.0 mi South 3.5 mph - N/A   Clear
5:15 AM 60.8 °F - 57.2 °F 88% 29.85 in 5.0 mi Calm Calm - N/A   Clear
5:36 AM 60.8 °F - 57.2 °F 88% 29.85 in 10.0 mi SSE 3.5 mph - N/A   Clear
5:55 AM 60.8 °F - 57.2 °F 88% 29.84 in 10.0 mi Calm Calm - N/A   Clear
6:15 AM 62.6 °F - 59.0 °F 88% 29.84 in 10.0 mi Calm Calm - N/A   Clear
6:35 AM 64.4 °F - 60.8 °F 88% 29.83 in 10.0 mi Calm Calm - N/A   Clear
6:55 AM 66.2 °F - 62.6 °F 88% 29.83 in 10.0 mi Calm Calm - N/A   Clear
7:35 AM 69.8 °F - 64.4 °F 83% 29.84 in 10.0 mi West 5.8 mph - N/A   Clear
7:55 AM 69.8 °F - 62.6 °F 78% 29.82 in 10.0 mi SSE 3.5 mph - N/A   Clear
8:15 AM 69.8 °F - 64.4 °F 83% 29.81 in 10.0 mi SE 6.9 mph - N/A   Clear
8:35 AM 69.8 °F - 64.4 °F 83% 29.78 in 10.0 mi ESE 8.1 mph - N/A   Clear
8:55 AM 71.6 °F - 64.4 °F 78% 29.79 in 10.0 mi ESE 3.5 mph - N/A   Clear
9:15 AM 75.2 °F - 64.4 °F 69% 29.78 in 10.0 mi SSE 5.8 mph - N/A   Clear
9:35 AM 77.0 °F - 64.4 °F 65% 29.77 in 10.0 mi SE 4.6 mph - N/A   Clear
9:55 AM 80.6 °F 82.7 °F 66.2 °F 61% 29.74 in 10.0 mi SE 9.2 mph - N/A   Clear
10:15 AM 82.4 °F 84.6 °F 66.2 °F 58% 29.73 in 7.0 mi SE 9.2 mph - N/A   Clear
10:35 AM 84.2 °F 86.6 °F 66.2 °F 55% 29.75 in 10.0 mi ESE 10.4 mph - N/A   Clear
10:55 AM 86.0 °F 88.2 °F 66.2 °F 51% - 10.0 mi ESE 5.8 mph - N/A   Clear
11:15 AM 89.6 °F 92.2 °F 66.2 °F 46% - 10.0 mi SE 10.4 mph - N/A   Clear
11:35 AM 93.2 °F 93.3 °F 60.8 °F 34% - 10.0 mi SSE 20.7 mph 25.3 mph N/A   Clear
11:55 AM 96.8 °F 96.2 °F 59.0 °F 28% - 10.0 mi SSE 12.7 mph - N/A   Clear
12:15 PM 96.8 °F 94.4 °F 53.6 °F 23% - 10.0 mi South 19.6 mph 24.2 mph N/A   Clear
12:35 PM 96.8 °F 95.1 °F 55.4 °F 25% - 10.0 mi South 19.6 mph 29.9 mph N/A   Clear
12:55 PM 96.8 °F 95.8 °F 57.2 °F 27% - 10.0 mi SSE 17.3 mph 31.1 mph N/A   Clear
1:15 PM 96.8 °F 98.0 °F 62.6 °F 32% - 10.0 mi SSE 24.2 mph 28.8 mph N/A   Clear
1:35 PM 98.6 °F 100.0 °F 62.6 °F 30% - 10.0 mi South 20.7 mph 28.8 mph N/A   Clear
1:55 PM 98.6 °F 101.0 °F 64.4 °F 32% - 10.0 mi South 21.9 mph 26.5 mph N/A   Clear
2:15 PM 98.6 °F 100.0 °F 62.6 °F 30% - 10.0 mi South 17.3 mph 28.8 mph N/A   Clear
2:35 PM 100.4 °F 102.4 °F 62.6 °F 29% - 10.0 mi South 19.6 mph 24.2 mph N/A   Clear
2:55 PM 100.4 °F 102.4 °F 62.6 °F 29% - 10.0 mi SSW 19.6 mph 27.6 mph N/A   Clear
3:15 PM 100.4 °F 101.3 °F 60.8 °F 27% - 10.0 mi SW 12.7 mph 19.6 mph N/A   Clear
3:35 PM 100.4 °F 99.7 °F 57.2 °F 24% - 10.0 mi WSW 15.0 mph 20.7 mph N/A   Clear
3:55 PM 100.4 °F 100.2 °F 59.0 °F 25% - 10.0 mi WSW 8.1 mph - N/A   Clear
4:15 PM 96.8 °F 99.0 °F 64.4 °F 34% - 10.0 mi WSW 10.4 mph - N/A   Clear
4:35 PM 96.8 °F 99.0 °F 64.4 °F 34% - 10.0 mi West 13.8 mph - N/A   Clear
4:55 PM 93.2 °F 94.1 °F 62.6 °F 36% - 10.0 mi West 11.5 mph - N/A   Clear
5:15 PM 91.4 °F 89.9 °F 57.2 °F 31% - 10.0 mi SSW 26.5 mph 41.4 mph N/A   Partly Cloudy
5:35 PM 87.8 °F 86.1 °F 55.4 °F 33% - 10.0 mi SSW 18.4 mph 24.2 mph N/A   Clear
5:55 PM 86.0 °F 84.9 °F 57.2 °F 37% - 10.0 mi SSW 9.2 mph - N/A   Clear
6:15 PM 86.0 °F 85.4 °F 59.0 °F 40% 29.67 in 10.0 mi SW 5.8 mph - N/A   Clear
6:55 PM 87.8 °F 87.6 °F 60.8 °F 40% - 10.0 mi WNW 6.9 mph - N/A   Clear
7:15 PM 84.2 °F 85.0 °F 62.6 °F 48% 29.68 in 10.0 mi North 4.6 mph - N/A   Clear
7:35 PM 84.2 °F 85.6 °F 64.4 °F 51% - 10.0 mi NNE 3.5 mph - N/A   Clear
7:55 PM 82.4 °F 83.4 °F 62.6 °F 51% - 10.0 mi Calm Calm - N/A   Clear
8:15 PM 80.6 °F 81.8 °F 62.6 °F 54% - 10.0 mi ENE 4.6 mph - N/A   Clear
8:55 PM 78.8 °F - 62.6 °F 57% - 10.0 mi NNE 8.1 mph - N/A   Clear
9:15 PM 77.0 °F - 62.6 °F 61% - 10.0 mi NE 6.9 mph - N/A   Clear
9:35 PM 78.8 °F - 62.6 °F 57% - 10.0 mi NE 5.8 mph - N/A   Clear
9:55 PM 75.2 °F - 64.4 °F 69% - 10.0 mi West 6.9 mph - N/A   Clear
10:15 PM 77.0 °F - 64.4 °F 65% - 10.0 mi North 8.1 mph - N/A Thunderstorm Clear
10:35 PM 78.8 °F - 62.6 °F 57% - 10.0 mi NNE 9.2 mph - N/A   Clear
10:55 PM 75.2 °F - 62.6 °F 65% - 10.0 mi NNE 6.9 mph - N/A   Partly Cloudy
11:15 PM 75.2 °F - 62.6 °F 65% 29.73 in 10.0 mi NNW 9.2 mph - N/A   Partly Cloudy
11:35 PM 73.4 °F - 64.4 °F 73% 29.72 in 10.0 mi NNW 9.2 mph - N/A   Clear
11:55 PM 75.2 °F - 64.4 °F 69% 29.72 in 10.0 mi NNW 11.5 mph - N/A   Clear